Weather History for KTCM - November, 2012

Change the Weather History Date:

Friday, November 16, 2012

  Actual Average Record
Temperature  
Mean Temperature 38 °F -  
Max Temperature 45 °F 49 °F 63 °F (1976)
Min Temperature 32 °F 35 °F 18 °F (2014)
Degree Days  
Heating Degree Days 26    
Moisture  
Dew Point 38 °F    
Average Humidity 99    
Maximum Humidity 100    
Minimum Humidity 93    
Precipitation  
Precipitation 0.18 in - - ()
Sea Level Pressure  
Sea Level Pressure 29.89 in    
Wind  
Wind Speed 2 mph (SSW)    
Max Wind Speed 6 mph    
Max Gust Speed -    
Visibility 5 miles    
Events Fog , Rain    
Averages and records for this station are not official NWS values.
T = Trace of Precipitation, MM = Missing Value Source: NWS Daily Summary

Daily Weather History Graph

Daily Weather History Graph

Search for Another Location

Airport or City:

Trip Planner

Search our weather history database for the weather conditions in past years. The results will help you decide how hot, cold, wet, or windy it might be!

Date:

Astronomy

Nov. 16, 2012 Rise Set
Actual Time 7:15 AM PST 4:33 PM PST
Civil Twilight 6:42 AM PST 5:06 PM PST
Nautical Twilight 6:05 AM PST 5:43 PM PST
Astronomical Twilight 5:29 AM PST 6:19 PM PST
Moon 10:18 AM PST (11/16) 7:36 PM PST (11/16)
Length of Visible Light 10h 23m
Length of Day
9h 17m
Waxing Crescent, 12% of the Moon is Illuminated
Nov 16
Waxing Crescent
Nov 20
First Quarter
Nov 28
Full
Dec 6
Last Quarter
Dec 13
New

Hourly Weather History & Observations

Time (PST) Temp. Windchill Dew Point Humidity Pressure Visibility Wind Dir Wind Speed Gust Speed Precip Events Conditions
12:00 AM 39.2 °F - 39.2 °F 100% 29.95 in 0.5 mi South 1.2 mph - N/A Fog Fog
12:12 AM 39.2 °F - 39.2 °F 100% 29.95 in 0.5 mi SW 2.3 mph - N/A Fog Fog
12:32 AM 39.2 °F - 39.2 °F 100% 29.95 in 0.5 mi SW 2.3 mph - N/A Fog Fog
12:58 AM 38.5 °F - 38.3 °F 99% 29.96 in 0.5 mi SSW 2.3 mph - 0.00 in Fog Fog
1:03 AM 39.2 °F - 37.4 °F 93% 29.94 in 0.5 mi SSW 2.3 mph - N/A Fog Fog
1:08 AM 39.2 °F - 37.4 °F 93% 29.94 in 0.5 mi Variable 2.3 mph - N/A Fog Fog
1:12 AM 37.4 °F 34.9 °F 37.4 °F 100% 29.94 in 0.5 mi SSE 3.5 mph - N/A Fog Fog
1:22 AM 37.4 °F - 37.4 °F 100% 29.94 in 0.5 mi SSE 2.3 mph - N/A Fog Fog
1:23 AM 37.4 °F - 37.4 °F 100% 29.94 in 0.5 mi South 1.2 mph - N/A Fog Fog
1:33 AM 37.4 °F - 37.4 °F 100% 29.94 in 0.5 mi South 1.2 mph - N/A Fog Fog
1:41 AM 37.4 °F - 37.4 °F 100% 29.94 in 0.5 mi SSW 2.3 mph - N/A Fog Fog
1:58 AM 37.6 °F 34.0 °F 37.2 °F 99% 29.96 in 0.5 mi SSW 4.6 mph - 0.00 in Fog Fog
2:02 AM 37.4 °F 34.9 °F 37.4 °F 100% 29.94 in 0.5 mi SSW 3.5 mph - N/A Fog Fog
2:37 AM 35.6 °F - 35.6 °F 100% 29.93 in 0.2 mi SW 2.3 mph - N/A Fog Fog
2:44 AM 35.6 °F - 35.6 °F 100% 29.93 in 0.2 mi South 1.2 mph - N/A Fog Fog
2:53 AM 35.6 °F 32.8 °F 35.6 °F 100% 29.93 in 0.2 mi South 3.5 mph - N/A Fog Fog
2:58 AM 36.0 °F - 35.8 °F 99% 29.95 in 0.2 mi SSW 2.3 mph - 0.00 in Fog Fog
3:08 AM 35.6 °F 32.8 °F 35.6 °F 100% 29.92 in 0.5 mi SSW 3.5 mph - N/A Fog Fog
3:22 AM 35.6 °F 32.8 °F 35.6 °F 100% 29.92 in 0.5 mi SSW 3.5 mph - N/A Fog Fog
3:33 AM 35.6 °F - 35.6 °F 100% 29.92 in 0.5 mi South 2.3 mph - N/A Fog Fog
3:43 AM 35.6 °F 32.8 °F 35.6 °F 100% 29.91 in 0.5 mi South 3.5 mph - N/A Fog Fog
3:58 AM 34.5 °F 31.6 °F 34.3 °F 99% 29.94 in 0.5 mi South 3.5 mph - 0.00 in Fog Fog
4:08 AM 33.8 °F - 33.8 °F 100% 29.91 in 0.5 mi South 2.3 mph - N/A Fog Fog
4:13 AM 33.8 °F 30.8 °F 33.8 °F 100% 29.92 in 0.8 mi South 3.5 mph - N/A   Mist
4:23 AM 32.0 °F - 32.0 °F 100% 29.91 in 0.8 mi Calm Calm - N/A   Mist
4:28 AM 32.0 °F - 32.0 °F 100% 29.91 in 1.0 mi Calm Calm - N/A   Mist
4:48 AM 32.0 °F 28.7 °F 32.0 °F 100% 29.92 in 0.8 mi South 3.5 mph - N/A   Mist
4:53 AM 32.0 °F - 32.0 °F 100% 29.92 in 0.8 mi South 2.3 mph - N/A   Mist
4:58 AM 33.3 °F 30.2 °F 32.9 °F 99% 29.94 in 0.8 mi South 3.5 mph - N/A   Mist
5:03 AM 32.0 °F - 32.0 °F 100% 29.91 in 0.5 mi South 2.3 mph - N/A Fog Fog
5:08 AM 32.0 °F - 32.0 °F 100% 29.92 in 0.5 mi SSW 2.3 mph - N/A Fog Fog
5:18 AM 32.0 °F 28.7 °F 32.0 °F 100% 29.92 in 0.5 mi SW 3.5 mph - N/A Fog Fog
5:38 AM 32.0 °F - 32.0 °F 100% 29.92 in 0.5 mi South 2.3 mph - N/A Fog Fog
5:48 AM 32.0 °F - 32.0 °F 100% 29.91 in 0.8 mi South 2.3 mph - N/A   Mist
5:53 AM 32.0 °F - 32.0 °F 100% 29.91 in 1.5 mi South 2.3 mph - N/A   Mostly Cloudy
5:58 AM 32.7 °F - 32.5 °F 99% 29.93 in 5.0 mi SSE 2.3 mph - N/A   Mostly Cloudy
6:03 AM 32.0 °F - 32.0 °F 100% 29.91 in 10.0 mi ESE 1.2 mph - N/A   Scattered Clouds
6:58 AM 33.4 °F - 33.3 °F 99% 29.93 in 10.0 mi SE 2.3 mph - N/A   Scattered Clouds
7:30 AM 33.8 °F - 33.8 °F 100% 29.91 in 10.0 mi Variable 2.3 mph - N/A Rain Light Rain
7:49 AM 33.8 °F - 33.8 °F 100% 29.91 in 10.0 mi SSW 1.2 mph - N/A   Mostly Cloudy
7:58 AM 34.7 °F - 34.3 °F 99% 29.93 in 10.0 mi Variable 1.2 mph - 0.00 in   Mostly Cloudy
8:58 AM 36.5 °F - 36.3 °F 99% 29.93 in 10.0 mi Variable 1.2 mph - N/A   Overcast
9:30 AM 37.4 °F 34.9 °F 37.4 °F 100% 29.91 in 10.0 mi NW 3.5 mph - N/A   Overcast
9:58 AM 38.5 °F 35.0 °F 38.3 °F 99% 29.93 in 10.0 mi NNW 4.6 mph - N/A   Mostly Cloudy
10:21 AM 39.2 °F - 39.2 °F 100% 29.91 in 10.0 mi Calm Calm - N/A Rain Light Rain
10:33 AM 41.0 °F 39.0 °F 39.2 °F 93% 29.92 in 10.0 mi NW 3.5 mph - N/A   Mostly Cloudy
10:40 AM 41.0 °F 39.0 °F 41.0 °F 100% 29.92 in 10.0 mi Variable 3.5 mph - N/A   Light Drizzle
10:58 AM 41.0 °F 39.0 °F 40.8 °F 99% 29.94 in 10.0 mi NNW 3.5 mph - 0.00 in   Light Drizzle
11:05 AM 41.0 °F 39.0 °F 41.0 °F 100% 29.91 in 10.0 mi North 3.5 mph - N/A   Overcast
11:21 AM 41.0 °F 39.0 °F 41.0 °F 100% 29.91 in 10.0 mi North 3.5 mph - N/A Rain Light Rain
11:39 AM 42.8 °F - 41.0 °F 93% 29.91 in 10.0 mi NW 2.3 mph - N/A   Overcast
11:44 AM 41.0 °F - 41.0 °F 100% 29.91 in 10.0 mi Calm Calm - N/A Rain Light Rain
11:58 AM 42.4 °F - 42.1 °F 99% 29.92 in 10.0 mi Variable 1.2 mph - 0.00 in Rain Light Rain
11:59 AM 42.8 °F - 41.0 °F 93% 29.90 in 10.0 mi Variable 1.2 mph - N/A   Mostly Cloudy
12:29 PM 42.8 °F - 41.0 °F 93% 29.88 in 10.0 mi Variable 2.3 mph - N/A Rain Light Rain
12:58 PM 43.2 °F 41.5 °F 42.1 °F 96% 29.89 in 10.0 mi NE 3.5 mph - 0.01 in Rain Light Rain
1:58 PM 43.9 °F 42.3 °F 43.7 °F 99% 29.86 in 10.0 mi Variable 3.5 mph - 0.02 in Rain Light Rain
2:58 PM 44.6 °F - 44.4 °F 99% 29.85 in 7.0 mi NW 2.3 mph - 0.03 in Rain Light Rain
3:34 PM 44.6 °F - 44.6 °F 100% 29.81 in 9.0 mi East 2.3 mph - N/A   Overcast
3:58 PM 44.6 °F - 44.4 °F 99% 29.83 in 10.0 mi Calm Calm - 0.02 in   Overcast
4:17 PM 44.6 °F - 44.6 °F 100% 29.80 in 8.0 mi WSW 2.3 mph - N/A Rain Light Rain
4:58 PM 44.8 °F - 44.4 °F 99% 29.81 in 6.0 mi Calm Calm - 0.03 in Rain Light Rain
5:49 PM 44.6 °F - 44.6 °F 100% 29.78 in 10.0 mi Variable 2.3 mph - N/A   Overcast
5:58 PM 44.4 °F 42.9 °F 44.2 °F 99% 29.80 in 10.0 mi NW 3.5 mph - 0.02 in   Overcast
6:07 PM 44.6 °F - 44.6 °F 100% 29.78 in 8.0 mi North 1.2 mph - N/A   Overcast
6:58 PM 43.7 °F - 43.5 °F 99% 29.78 in 5.0 mi Calm Calm - N/A   Overcast
7:58 PM 43.9 °F - 43.5 °F 99% 29.77 in 6.0 mi SW 2.3 mph - N/A   Overcast
8:33 PM 44.6 °F - 42.8 °F 93% 29.74 in 6.0 mi Calm Calm - N/A Rain Light Rain
8:58 PM 44.1 °F - 43.9 °F 99% 29.76 in 5.0 mi NNW 2.3 mph - 0.00 in Rain Light Rain
9:21 PM 44.6 °F - 44.6 °F 100% 29.73 in 4.0 mi East 2.3 mph - N/A   Mostly Cloudy
9:24 PM 44.6 °F - 44.6 °F 100% 29.73 in 4.0 mi East 2.3 mph - N/A Rain Light Rain
9:40 PM 44.6 °F - 44.6 °F 100% 29.73 in 5.0 mi WNW 1.2 mph - N/A   Overcast
9:58 PM 44.8 °F - 44.6 °F 99% 29.74 in 7.0 mi Calm Calm - 0.01 in   Overcast
10:41 PM 44.6 °F 42.2 °F 44.6 °F 100% 29.73 in 9.0 mi Variable 4.6 mph - N/A Rain Light Rain
10:58 PM 45.9 °F 42.9 °F 45.7 °F 99% 29.75 in 8.0 mi Variable 5.8 mph - 0.02 in Rain Light Rain
11:58 PM 45.7 °F - 45.3 °F 99% 29.71 in 5.0 mi East 2.3 mph - 0.02 in Rain Light Rain